Regional Weather Roundup
Issued by NWS San Diego, CA

Home | Current Version | Previous Version | Text Only | Print | Product List | Glossary On
Versions: 1 2 3 4 5 6 7 8 9 10 11 12 13 14 15 16 17 18 19 20 21 22 23 24 25 26 27 28 29 30 31 32 33 34 35 36 37 38 39 40 41 42 43 44 45 46 47 48 49 50
000
ASUS46 KSGX 271911
RWRSGX

SAN DIEGO HOURLY WEATHER ROUNDUP
NATIONAL WEATHER SERVICE SAN DIEGO CA
1200 PM PDT WED MAY 27 2015

NOTE: "FAIR" INDICATES FEW OR NO CLOUDS BELOW 12,000 FEET WITH NO
SIGNIFICANT WEATHER AND/OR OBSTRUCTIONS TO VISIBILITY.

CAZ042-043-060-061-PZZ750-775-272000-

GREATER SAN DIEGO AREA

CITY           SKY/WX    TMP DP  RH WIND       PRES   REMARKS
LINDBERGH FLD  CLOUDY    64  54  69 NW8       30.03R
POINT LOMA       N/A     64  55  73 W13         N/A
NATIONAL CITY    N/A     64  58  79 W5        30.02S
CHULA VISTA      N/A     64  58  82 NW6       29.94S
IMPERIAL BEACH CLOUDY    66  55  67 NW10      30.02S
BROWN FIELD    CLOUDY    64  57  78 W9        30.00F
MIRAMAR MCAS   CLOUDY    66  54  65 W5        30.01S
MONTGOMERY FLD CLOUDY    63  55  75 W6        30.01S

$$

NORTH SAN DIEGO COUNTY

CITY           SKY/WX    TMP DP  RH WIND       PRES   REMARKS
CAMP PENDLETON PTSUNNY   67  54  63 SW7       29.99F
OCEANSIDE AP   CLOUDY    67  55  65 W7        29.99S
OCEANSIDE HBR    N/A     64  58  79 W12       30.03S
VISTA            N/A     65  57  77 CALM      29.98F
CARLSBAD       CLOUDY    64  55  72 W6        30.00S
DEL MAR          N/A     63  58  82 CALM      30.03S
LA JOLLA SCRIP   N/A    N/A N/A N/A W3        29.99S
FALLBROOK        N/A     65  61  88 SE5       30.00F
ESCONDIDO        N/A     66  59  79 CALM      30.02S
SAN MARCOS       N/A     65  58  79 CALM      29.99S
POWAY            N/A     65  58  78 SW7       30.02F

$$

EAST SAN DIEGO COUNTY

CITY           SKY/WX    TMP DP  RH WIND       PRES   REMARKS
RAMONA         CLOUDY    61  54  77 CALM      30.01S
SANTEE LAKES     N/A     66  58  74 CALM      30.00F
LA MESA          N/A     63  56  80 NW3       29.95S
JAMUL            N/A     60  58  91 CALM      30.00S
DESCANSO N       N/A     66  57  72 SW6       29.86F
MT. LAGUNA OBS   N/A     65  41  41 CALM      29.68S
CAMPO            N/A     66  54  65 SW16      29.96R

$$

ORANGE COUNTY AND THE LOS ANGELES BASIN

CITY           SKY/WX    TMP DP  RH WIND       PRES   REMARKS
JOHN WAYNE AP  PTSUNNY   67  53  61 VRB3      30.00S
LAKE FOREST FR   N/A     70  52  52 SW3       29.89F
SANTA ANA        N/A     71  57  61 CALM      29.95S
HUNTINGTON BCH   N/A     67  58  72 W9        30.02S
LOS ALAMITOS   CLOUDY    68  55  64 SW6       29.99F
FULLERTON      CLOUDY    69  52  54 CALM      29.99S
LONG BEACH     CLOUDY    69  54  58 VRB5      30.00S
L.A. AP        PTSUNNY   63  54  72 W8        30.01S
L.A. DOWNTOWN  CLOUDY    69  54  58 CALM      29.99F

$$

THE INLAND EMPIRE

CITY           SKY/WX    TMP DP  RH WIND       PRES   REMARKS
CORONA         SUNNY     70  53  54 VRB3      29.99F
CHINO          SUNNY     71  53  52 CALM      30.00F
ONTARIO        MOSUNNY   67  52  58 SW7       29.99F
SAN BERNARDINO SUNNY     66  50  55 SW7       30.00S HAZE
RIVERSIDE AP   SUNNY     67  53  61 VRB5      30.00S
RIV CYN CREST    N/A     65  61  88 NW1         N/A
MORENO VALLEY    N/A     70  58  67 W1        29.97F
MARCH ARB      SUNNY     67  52  58 N3        29.99F
HORSETHIEF CYN   N/A     69  52  54 NW3       29.95S
PERRIS           N/A     68  55  62 W3          N/A
MENIFEE          N/A     71  56  58 S2        30.04F
HEMET EAST       N/A     68  50  51 W1        29.95S
FRENCH VALLEY  FAIR      66  54  63 CALM      30.00S
TEMECULA         N/A     68  59  73 SW1       29.95F

$$

SAN BERNARDINO AND RIVERSIDE COUNTY MOUNTAINS

CITY           SKY/WX    TMP DP  RH WIND       PRES   REMARKS
BIG BEAR AP    SUNNY     64  28  25 NE10G18   30.16S
ANGELUS OAKS     N/A     67  46  45 CALM      29.85F
PINE COVE        N/A     68  42  39 W3        29.90R

$$

SOUTHERN DESERT INCLUDING THE COACHELLA VALLEY

CITY           SKY/WX    TMP DP  RH WIND       PRES   REMARKS
PALM SPRINGS   SUNNY     89  43  20 E8        29.89S
THOUSAND PALMS   N/A     89  49  24 CALM      29.87S
PALM DESERT      N/A     89  52  27 SE3         N/A
THERMAL        SUNNY     88  43  20 SE8       29.84F
BLYTHE         SUNNY     89  37  16 SE8       29.88S
IMPERIAL AP    SUNNY     86  54  33 VRB6      29.85F
EL CENTRO NAS  MOSUNNY   87  54  32 VRB5      29.87S
YUMA AZ        PTSUNNY   87  45  23 SW9       29.88F
MEXICALI       MOSUNNY   84  46  26 E8        29.88S

$$

UPPER DESERT

CITY           SKY/WX    TMP DP  RH WIND       PRES   REMARKS
VICTORVILLE AP SUNNY     81  34  18 SW3       29.98S
HESPERIA         N/A     78  40  25 CALM      30.00F
APPLE VALLEY     N/A     81  34  18 N2        30.00F
PALMDALE       SUNNY     80  39  23 CALM      29.96F
LANCASTER      SUNNY     83  41  22 VRB3      29.95F
EDWARDS AFB    MOSUNNY   80  42  25 VRB2      29.94S
DAGGETT        SUNNY     84  34  16 N6        29.92F
29 PALMS N     MOSUNNY   85  35  16 E7        29.99F

$$

REGIONAL REPORTS

CITY           SKY/WX    TMP DP  RH WIND       PRES   REMARKS
SANTA BARBARA  CLOUDY    63  54  72 VRB6      30.01S
SANDBERG       SUNNY     73  40  30 MISG      30.08R
LAS VEGAS NV   MOSUNNY   88  34  14 VRB6      29.90F
PHOENIX AZ     PTSUNNY   90  35  14 VRB5      29.90F
TIJUANA        CLOUDY    63  54  72 W8        30.03S
ENSENADA NW      N/A     64  32  29 W10       29.98S

$$

OFFSHORE ISLANDS

CITY           SKY/WX    TMP DP  RH WIND       PRES   REMARKS
CATALINA ARPT  CLOUDY    57  52  83 NW8       30.02F
SAN NICOLAS IS CLOUDY    62  53  72 NW16      30.02F

$$

MARINE AND OFFSHORE BUOY REPORTS

STATION/POSITION SKY/WX   TEMP    WIND        PRES    SWELL
                          AIR SEA DIR/SP/G            HT/PER/DIR
                          (F)     (DEG/KT/KT) (MB)    (FT/S/D)
TANNER BANKS               59 60  320/ 14/ 17 1017.4R   3/200/15
S CLEMENTE BASIN           60 62  290/ 10/ 12 1016.6F   3/220/15
SAN NICOLAS IS.               60                N/A     3/200/13
SO. S. ROSA ISLA           57 59  320/ 16/ 19 1016.5S   3/14
W. S. BARBARA CH           56 57  320/ 16/ 19 1016.4F   3/220/16
M. S. BARBARA CH           58 59  330/  2/  4 1017.0R
S. MONICA BASIN            59 63  310/  6/  6 1016.6R   3/210/15
S PEDRO CHANNEL               63                N/A     2/210/13
DANA POINT                    64                N/A     2/190/13
OCEANSIDE OFFSHR              65                N/A     3/210/15
TORREY PINES OTR              65                N/A     3/220/15
LA JOLLA 1                 63 65  310/  7/  9 1016.1R
MISSION BAY BUOY              65                N/A     3/210/17
SAN DIEGO BAY                 66              1016.6R
POINT LOMA SOUTH              64                N/A     3/220/18

$$



USA.gov is the U.S. government's official web portal to all federal, state and local government web resources and services.